User: anonymous   Login
Location: Caltech
(34.1382°N, 118.1253°W)
Time: 20:50:48
(UTC-07:00)
Language:

Cosmos 1733 Rocket - Orbit

View from above orbital plane
View from above orbital plane
View from above satellite
View from above satellite

Ground track
Ground track

The orbit data is extracted from the following two-line orbital elements,

1 16612U 86018B   16180.53566009  .00000088  00000-0  77091-5 0  9994
2 16612  82.5177 268.2121 0016397 237.5527 180.8967 14.84087929539005
Epoch (UTC): 28 June 2016 12:51:21
Eccentricity: 0.0016397
inclination: 82.5177°
perigee height: 605 km
apogee height: 628 km
right ascension of ascending node: 268.2121°
argument of perigee: 237.5527°
revolutions per day: 14.84087929
mean anomaly at epoch: 180.8967°
orbit number at epoch: 53900

The dashed part of the orbit path shows where the satellite is in the earth's shadow,  

DLR